Regional Weather Roundup
Issued by NWS Austin/San Antonio, TX

Home | Current Version | Previous Version | Text Only | Print | Product List | Glossary On
Versions: 1 2 3 4 5 6 7 8 9 10 11 12 13 14 15 16 17 18 19 20 21 22 23 24 25 26 27 28 29 30 31 32 33 34 35 36 37 38 39 40 41 42 43 44 45 46 47 48 49 50
000
ASUS44 KEWX 131711
RWREWX
SOUTH TEXAS REGIONAL WEATHER ROUNDUP
NATIONAL WEATHER SERVICE AUSTIN/SAN ANTONIO TX
1200 PM CDT SUN OCT 13 2019

NOTE: "FAIR" INDICATED FEW OR NO CLOUDS BELOW 12,000 FEET WITH NO
SIGNIFICANT WEATHER AND/OR OBSTRUCTIONS TO VISIBILITY.

* - THESE STATIONS ARE NOT NWS OR FAA STATIONS...AND ARE NOT SUBJECT
    TO NWS AND FAA QUALITY CONTROL.

TXZ171-172-183>190-131800-
TEXAS HILL COUNTRY AND EDWARDS PLATEAU

CITY           SKY/WX    TMP DP  RH WIND       PRES   REMARKS
JUNCTION       SUNNY     68  39  34 SW5       30.06F
*LLANO         MOSUNNY   72  39  30 CALM      30.08F
BURNET         CLOUDY    65  45  48 S3        30.08F
*HORSESHOE BAY MOSUNNY   70  43  37 S6        30.06F
*KERRVILLE     SUNNY     72  34  25 S9        30.07F
*FREDERICKSBRG SUNNY     71  38  29 S9        30.06S
*ROCKSPRINGS   SUNNY     66  34  30 S13       30.12S
*BOERNE        MOSUNNY   68  37  32 CALM      30.08S
*CASTROVILLE   PTSUNNY   76  35  23 SE5       30.07F
HONDO          CLOUDY    73  35  25 VRB3      30.06F
*UVALDE        SUNNY     69  33  25 W3        30.07S
DEL RIO        SUNNY     69  38  32 SE8       30.04S
LAUGHLIN AFB   CLOUDY    69  35  29 S7        30.05S
SPOFFORD       MOSUNNY   70  33  25 S7        30.00S
*EAGLE PASS    SUNNY     73  34  23 SE6       30.05F
CARRIZO SPRGS  CLOUDY    77  36  22 SE5       30.04R
*FAITH RANCH   PTSUNNY   73  36  25 CALM      30.04F
$$

TXZ173-191>194-202-209-217>225-228-131800-
CENTRAL AND SOUTH CENTRAL TEXAS

CITY           SKY/WX    TMP DP  RH WIND       PRES   REMARKS
GEORGETOWN     CLOUDY    67  45  45 VRB3      30.09S
AUSTIN/BERGSTM CLOUDY    69  42  37 VRB5      30.07S
AUSTIN/MABRY   CLOUDY    67  42  40 VRB5      30.08S
*AUSTIN/EXEC   MOSUNNY   66  41  39 SE3       30.08F
*LAGO VISTA    CLOUDY    65  43  45 CALM      30.07F
SAN MARCOS     CLOUDY    69  41  36 S5        30.07F
NEW BRAUNFELS  CLOUDY    70  38  31 S5        30.05F
RANDOLPH AFB   PTSUNNY   72  40  30 S5        30.05F
SEGUIN         CLOUDY    71  43  36 CALM      30.10F
KELLY FIELD    PTSUNNY   74  38  27 S6        30.04F
SAN ANTONIO    PTSUNNY   71  39  31 S6        30.06F
STINSON FIELD  PTSUNNY   73  38  27 CALM      30.04F
PLEASANTON     CLOUDY    73  42  33 CALM      30.06F
*LA GRANGE     CLOUDY    71  49  45 N3        30.05S
*GIDDINGS      CLOUDY    72  47  40 SE3       30.08S
*GONZALES      CLOUDY    72  49  44 CALM      30.06F
$$

TXZ163>164-176>182-195>201-210>213-226-227-235-131800-
SOUTHEAST TEXAS

CITY           SKY/WX    TMP DP  RH WIND       PRES   REMARKS
COLLEGE STN    CLOUDY    69  43  38 E3        30.07F
*BRYAN         CLOUDY    65  49  55 E5        30.09F
*CALDWELL      CLOUDY    67  45  45 E5        30.08S
*CROCKETT      MOSUNNY   66  46  48 SE5       30.11F
*BRENHAM       CLOUDY    71  48  44 CALM      30.08S
HUNTSVILLE     PTSUNNY   69  49  48 CALM      30.08F
CONROE         PTSUNNY   68  52  56 E3        30.08F
HOUSTON BUSH   PTSUNNY   72  51  47 NE7       30.07F
HOUSTON HOBBY  PTSUNNY   76  55  48 NE3       30.06F
*HOUSTON SW AP CLOUDY    72  56  57 N3        30.07F
PEARLAND       CLOUDY    74  55  51 N5        30.07F
HOUSTON HOOKS  FAIR      71  49  45 E5        30.08F
ELLINGTON FLD  CLOUDY    75  55  50 NE3       30.05R
SUGAR LAND     CLOUDY    74  56  53 NE6       30.05F
*HOUSTON EXEC  FAIR      72  52  49 CALM      30.08F
*CLEVELAND MUN PTSUNNY   67  54  64 CALM      30.10S
*WHARTON       MOSUNNY   77  55  45 NE6       30.06F
*COLUMBUS      CLOUDY    73  45  37 NE3       30.07F
*EAGLE LAKE    PTSUNNY   74  52  44 NE5       30.06
$$

TXZ214>216-236>238-131800-
THE UPPER TEXAS COAST

CITY           SKY/WX    TMP DP  RH WIND       PRES   REMARKS
*ORANGE        FAIR      75  60  58 N7        30.09R
PORT ARTHUR    CLOUDY    75  56  51 N7        30.06S
GALVESTON      CLOUDY    71  59  65 N10       30.07R
ANGLETON       CLOUDY    73  58  59 NE6       30.06F
*BAY CITY      CLOUDY    74  58  57 NE8       30.05F
PALACIOS       CLOUDY    75  57  53 NE9       30.04F
$$

TXZ229>234-239>247-131800-
TEXAS COASTAL BEND AND RIO GRANDE PLAINS

CITY           SKY/WX    TMP DP  RH WIND       PRES   REMARKS
VICTORIA       CLOUDY    74  55  51 NE6       30.05F
*BEEVILLE      CLOUDY    76  47  35 E6        30.03
ROCKPORT       PTSUNNY   80  58  46 N13       30.02F
*PORT ARANSAS  CLOUDY    74  62  65 N16       30.03F
*PORT LAVACA   CLOUDY    74  57  55 NE8       30.05F
*INGLESIDE     CLOUDY    75  58  54 NE14      30.01F
CORPUS CHRISTI PTSUNNY   75  55  49 NE9       30.02F
CORPUS NAS     CLOUDY    74  65  73 NE16      30.01S
*ROBSTOWN      CLOUDY    74  52  47 N8        30.03F
ALICE          CLOUDY    75  48  38 NE10      30.03S
KINGSVILLE NAS CLOUDY    74  51  44 N12       30.02F
COTULLA        CLOUDY    74  36  25 SE7       30.05S
LAREDO         CLOUDY    73  52  47 E3        30.03F
$$

TXZ248>255-131800-
DEEP SOUTH TEXAS

CITY           SKY/WX    TMP DP  RH WIND       PRES   REMARKS
BROWNSVILLE    CLOUDY    76  56  49 NW9       29.98R
PORT ISABEL    CLOUDY    79  65  62 NW14      29.97S
HARLINGEN      CLOUDY    76  57  51 N12       29.98F
*HEBBRONVILLE  CLOUDY    69  53  58 CALM      30.06R
MCALLEN        CLOUDY    68  58  70 N12       30.01S
*WESLACO       CLOUDY    71  56  59 N10       29.99
FALFURRIAS     CLOUDY    73  46  38 N8        30.03S
EDINBURG       CLOUDY    70  56  60 N9        30.02S
*ZAPATA        CLOUDY    72  52  49 CALM      30.05S
$$

TXZ213>215-236>238-242>244-246-247-251-254-255-131800-
CMAN STATIONS

STATION/POSITION TIME  TEMP    WIND        PRES    WAVE
                       AIR SEA DIR/SP/G            HT/PER
                 (UTC) (F)     (DEG/KT/KT) (MB)    (FT/S)
SABINE PASS      1624   72 76   20/  5/  6 1019.6
SEA RIM ST PARK  1700   71      30/  8/  9 1017.9
NORTH JETTY/GLS  1624   69 73   20/  7/  9 1016.9
EAGLE POINT      1624   67 71   20/  6/  8 1017.5
MORGANS POINT    1624   70 77   30/  2/  4 1018.2
PORT O`CONNOR    1624   69 69   20/ 12/ 13 1017.2
PORT ARANSAS     1700   72 78  360/ 13/ 16 1016.3
MALAQUITE BEACH  1624      79  360/ 15/ 17 1016.0
BAFFIN BAY       1624   70 72  350/ 16/ 17 1016.4
PORT ISABEL      1624   71 74  340/ 12/ 17 1014.9
$$



USA.gov is the U.S. government's official web portal to all federal, state and local government web resources and services.